Location: Clair
(33.8067°N, 117.9845°W)
Time: 17:29:18
(UTC+00:00)

Cosmos 2227 Rocket - Pass Details

Date: 14 February 2026
Orbit: 836 x 845 km, 71.0° (Epoch: 8 March)

Event Time Altitude Azimuth Distance (km) Brightness Sun altitude
Exits shadow 12:20:29 19° 357° (N) 1,889 4.0 -29.0°
Maximum altitude 12:24:20 51° 66° (ENE) 1,056 2.9 -28.2°
Drops below altitude 10° 12:29:49 10° 142° (SE) 2,457 5.0 -27.0°
Sets 12:32:19 0° 147° (SSE) 3,388 5.7 -26.5°
